Home > Time Zones > World Clock > Weather > Japan > Tokyo > Past weeks

Flag for Japan Weather past 2 weeks in Tokyo, Japan

Now
73 °F

Clear.


Feels Like: 76 °F
Forecast: 66 / 83 °F
Wind: 8 mph from South

Location: Tokyo

Current Time: May 26, 2015 at 10:06:33 PM

Latest Report: May 26, 2015 at 9:00 PM


Visibility: 9 mi

Pressure: 29.76 "Hg

Humidity: 59%

Dew point: 58 °F

Location of TokyoLocation

Historic Weather in Tokyo — Graph

°F

Tokyo temperature yesterday

Maximum temperature yesterday: 78 °F (at 11:00 AM)
Minimum temperature yesterday: 62 °F (at 4:00 AM)
Average temperature yesterday: 70 °F

Past Weeks' High & Low Weather Summary

 TemperatureHumidityPressure
High87 °F (May 26, 2:00 PM)98% (May 12, 11:00 PM)30.17 "Hg (May 12, 11:00 PM)
Low56 °F (May 21, 5:00 AM)17% (May 26, 2:00 PM)29.44 "Hg (May 13, 12:00 AM)
Average70 °F65%29.78 "Hg
* Reported May 11 8:00 PM — May 26 8:00 PM, Tokyo, Weather by CustomWeather, © 2015

Note: Actual official high and low records may vary slightly from our data, if they occured in-between our weather recording intervals... More about our weather records

Advertising

Tokyo weather history for previous 24 hours

 ConditionsComfort  
Time TempWeatherWind HumidityBarometerVisibility
8:00 PM
Tue, May 26
74 °FMild.8 mph53%29.75 "HgN/A
7:00 PM75 °FMild.7 mph53%29.74 "HgN/A
6:00 PM78 °FClear.8 mph47%29.72 "Hg12 mi
5:00 PM82 °FPleasantly warm.9 mph28%29.71 "HgN/A
4:00 PM81 °FPleasantly warm.10 mph29%29.70 "HgN/A
3:00 PM87 °FPassing clouds.7 mph23%29.69 "Hg12 mi
2:00 PM87 °FPleasantly warm.8 mph17%29.70 "HgN/A
1:00 PM85 °FPleasantly warm.6 mph21%29.71 "HgN/A
11:00 AM80 °FWarm.3 mph40%29.75 "HgN/A
10:00 AM77 °FWarm.5 mph42%29.78 "HgN/A
9:00 AM76 °FPassing clouds.5 mph59%29.79 "Hg12 mi
8:00 AM72 °FMild.3 mph61%29.81 "HgN/A
7:00 AM67 °FMild.3 mph62%29.81 "HgN/A
6:00 AM65 °FPartly sunny.5 mph67%29.80 "Hg12 mi
5:00 AM64 °FMild.5 mph75%29.80 "HgN/A
4:00 AM63 °FMild.6 mph76%29.79 "HgN/A
3:00 AM63 °FPassing clouds.2 mph73%29.79 "Hg12 mi
2:00 AM64 °FMild.3 mph69%29.80 "HgN/A
1:00 AM65 °FMild.8 mph71%29.80 "HgN/A
12:00 AM66 °FMild.5 mph73%29.81 "HgN/A
11:00 PM
Mon, May 25
67 °FMild.5 mph73%29.83 "HgN/A
10:00 PM67 °FMild.5 mph73%29.84 "HgN/A
Weather by CustomWeather, © 2015

See weather overviewHow to use our weather pages